Location: Holyhead Bay
(53.3667°N, 4.6667°W)
Time: 08:21:14
(UTC+00:00)

FENGYUN 1C DEB - Visible Passes

Search period start: 21 June 2021 00:00
Search period end: 01 July 2021 00:00
Orbit: 776 x 852 km, 99.1° (Epoch: 20 June)

Date Brightness Start Highest point End Pass type
(mag) Time Alt. Az. Time Alt. Az. Time Alt. Az.
21 Jun ? 02:41:13 10° ESE 02:45:35 27° NE 02:50:02 10° N visible
22 Jun ? 02:19:36 10° E 02:23:21 20° NE 02:27:10 10° N visible
23 Jun ? 01:58:16 10° E 02:01:11 15° NE 02:04:07 10° NNE visible
24 Jun ? 01:37:34 10° ENE 01:39:05 11° NE 01:40:36 10° NNE visible
25 Jun ? 02:50:46 10° ESE 02:55:22 31° ENE 03:00:03 10° N visible
26 Jun ? 02:29:02 10° ESE 02:33:06 23° NE 02:37:14 10° N visible
27 Jun ? 02:07:34 10° E 02:10:55 17° NE 02:14:17 10° N visible
28 Jun ? 01:46:31 10° ENE 01:48:47 13° NE 01:51:04 10° NNE visible
29 Jun ? 03:00:20 10° ESE 03:05:09 35° ENE 03:10:03 10° N visible
30 Jun ? 02:38:30 10° ESE 02:42:52 26° NE 02:47:17 10° N visible
